EN

Hourly Weather Padina

Today, 3 March, Wednesday

Time Temperature Precipitation Wind Pressure Humidity
00:00 +7°C° 0 mm 1 mps 765 mmHg 70%
01:00 +6°C° 0 mm 1 mps 764 mmHg 70%
02:00 +6°C° 0 mm 1 mps 764 mmHg 72%
03:00 +6°C° 0 mm 1 mps 764 mmHg 73%
04:00 +5°C° 0 mm 1 mps 764 mmHg 74%
05:00 +5°C° 0 mm 1 mps 764 mmHg 75%
06:00 +5°C° 0 mm 1 mps 764 mmHg 75%
07:00 +4°C° 0 mm 0 mps 764 mmHg 76%
08:00 +7°C° 0 mm 1 mps 764 mmHg 69%
09:00 +9°C° 0 mm 1 mps 764 mmHg 62%
10:00 +11°C° 0 mm 1 mps 763 mmHg 55%
11:00 +12°C° 0 mm 1 mps 763 mmHg 51%
12:00 +13°C° 0 mm 1 mps 763 mmHg 47%
13:00 +14°C° 0 mm 1 mps 762 mmHg 43%
14:00 +14°C° 0 mm 1 mps 762 mmHg 42%
15:00 +14°C° 0 mm 1 mps 761 mmHg 42%
16:00 +14°C° 0 mm 1 mps 760 mmHg 41%
17:00 +13°C° 0 mm 1 mps 760 mmHg 46%
18:00 +12°C° 0 mm 1 mps 760 mmHg 50%
19:00 +11°C° 0 mm 1 mps 760 mmHg 55%
20:00 +10°C° 0 mm 1 mps 760 mmHg 57%
21:00 +9°C° 0 mm 2 mps 760 mmHg 59%
22:00 +8°C° 0 mm 2 mps 759 mmHg 62%
23:00 +8°C° 0 mm 2 mps 759 mmHg 64%

Tomorrow, 4 March, Thursday

Time Temperature Precipitation Wind Pressure Humidity
00:00 +7°C° 0 mm 2 mps 759 mmHg 66%
01:00 +7°C° 0 mm 2 mps 759 mmHg 68%
02:00 +6°C° 0 mm 2 mps 758 mmHg 69%
03:00 +6°C° 0 mm 2 mps 757 mmHg 71%
04:00 +6°C° 0 mm 2 mps 757 mmHg 73%
05:00 +5°C° 0 mm 2 mps 757 mmHg 73%
06:00 +5°C° 0 mm 2 mps 757 mmHg 73%
07:00 +5°C° 0 mm 2 mps 756 mmHg 74%
08:00 +7°C° 0 mm 2 mps 756 mmHg 67%
09:00 +9°C° 0 mm 2 mps 756 mmHg 60%
10:00 +12°C° 0 mm 2 mps 755 mmHg 53%
11:00 +13°C° 0 mm 2 mps 755 mmHg 48%
12:00 +15°C° 0 mm 2 mps 754 mmHg 42%
13:00 +16°C° 0 mm 2 mps 754 mmHg 37%
14:00 +16°C° 0 mm 2 mps 753 mmHg 36%
15:00 +16°C° 0 mm 2 mps 752 mmHg 36%
16:00 +16°C° 0 mm 2 mps 752 mmHg 35%
17:00 +15°C° 0 mm 1 mps 752 mmHg 39%
18:00 +13°C° 0 mm 1 mps 752 mmHg 43%
19:00 +12°C° 0 mm 1 mps 752 mmHg 47%
20:00 +11°C° 0 mm 1 mps 752 mmHg 49%
21:00 +11°C° 0 mm 1 mps 751 mmHg 51%
22:00 +10°C° 0 mm 1 mps 751 mmHg 52%
23:00 +10°C° 0 mm 1 mps 751 mmHg 54%

Day after tomorrow, 5 March, Friday

Time Temperature Precipitation Wind Pressure Humidity
00:00 +10°C° 0 mm 1 mps 751 mmHg 55%
01:00 +9°C° 0 mm 1 mps 751 mmHg 57%
02:00 +9°C° 0 mm 1 mps 751 mmHg 58%
03:00 +7°C° 0 mm 2 mps 751 mmHg 59%
04:00 +7°C° 0 mm 2 mps 750 mmHg 61%
05:00 +7°C° 0 mm 2 mps 751 mmHg 61%
06:00 +7°C° 0 mm 2 mps 751 mmHg 62%
07:00 +7°C° 0 mm 2 mps 751 mmHg 63%
08:00 +8°C° 0 mm 3 mps 751 mmHg 58%
09:00 +10°C° 0 mm 3 mps 751 mmHg 53%
10:00 +12°C° 0 mm 4 mps 751 mmHg 48%
11:00 +13°C° 0 mm 5 mps 751 mmHg 46%
12:00 +14°C° 0 mm 5 mps 751 mmHg 45%
13:00 +14°C° 0 mm 5 mps 750 mmHg 44%
14:00 +14°C° 0 mm 5 mps 750 mmHg 46%
15:00 +13°C° 0 mm 5 mps 750 mmHg 48%
16:00 +13°C° 0 mm 5 mps 750 mmHg 51%
17:00 +12°C° 0 mm 4 mps 751 mmHg 57%
18:00 +11°C° 0 mm 3 mps 751 mmHg 63%
19:00 +10°C° 0 mm 2 mps 752 mmHg 70%
20:00 +9°C° 0 mm 2 mps 752 mmHg 72%
21:00 +9°C° 0 mm 2 mps 752 mmHg 75%
22:00 +8°C° 0 mm 2 mps 753 mmHg 77%
23:00 +6°C° 0.2 mm 4 mps 753 mmHg 77%

6 March, Saturday

Time Temperature Precipitation Wind Pressure Humidity
00:00 +5°C° 0.2 mm 5 mps 753 mmHg 77%
01:00 +3°C° 0.2 mm 6 mps 754 mmHg 77%
02:00 +2°C° 0.6 mm 6 mps 754 mmHg 78%
03:00 +2°C° 0.6 mm 6 mps 755 mmHg 79%
04:00 +1°C° 0.6 mm 5 mps 755 mmHg 81%
05:00 +1°C° 0 mm 5 mps 756 mmHg 73%
06:00 +1°C° 0 mm 5 mps 757 mmHg 66%
07:00 -1°C° 0 mm 6 mps 758 mmHg 58%
08:00 +1°C° 0 mm 5 mps 759 mmHg 54%
09:00 +2°C° 0 mm 5 mps 759 mmHg 50%
10:00 +2°C° 0 mm 5 mps 760 mmHg 45%
11:00 +3°C° 0 mm 5 mps 760 mmHg 42%
12:00 +5°C° 0 mm 5 mps 760 mmHg 38%
13:00 +6°C° 0 mm 5 mps 760 mmHg 34%
14:00 +5°C° 0 mm 5 mps 760 mmHg 34%
15:00 +5°C° 0 mm 5 mps 760 mmHg 35%
16:00 +5°C° 0 mm 5 mps 761 mmHg 35%
17:00 +4°C° 0 mm 4 mps 761 mmHg 40%
18:00 +3°C° 0 mm 3 mps 761 mmHg 45%
19:00 +3°C° 0 mm 2 mps 762 mmHg 49%
20:00 +3°C° 0 mm 2 mps 762 mmHg 51%
21:00 +2°C° 0 mm 2 mps 762 mmHg 53%
22:00 +2°C° 0 mm 2 mps 763 mmHg 54%
23:00 +1°C° 0 mm 2 mps 763 mmHg 55%

7 March, Sunday

Time Temperature Precipitation Wind Pressure Humidity
00:00 +2°C° 0 mm 1 mps 763 mmHg 56%
01:00 +2°C° 0 mm 1 mps 762 mmHg 56%
02:00 +1°C° 0 mm 1 mps 762 mmHg 56%
03:00 +1°C° 0 mm 1 mps 762 mmHg 56%
04:00 +1°C° 0 mm 1 mps 762 mmHg 57%
05:00 0°C° 0 mm 0 mps 762 mmHg 56%
06:00 0°C° 0 mm 0 mps 762 mmHg 55%
07:00 +1°C° 0 mm 0 mps 762 mmHg 53%
08:00 +3°C° 0 mm 1 mps 762 mmHg 48%
09:00 +4°C° 0 mm 1 mps 761 mmHg 42%
10:00 +6°C° 0 mm 1 mps 761 mmHg 37%
11:00 +6°C° 0 mm 1 mps 761 mmHg 35%
12:00 +7°C° 0 mm 1 mps 760 mmHg 33%
13:00 +8°C° 0 mm 1 mps 759 mmHg 31%
14:00 +8°C° 0 mm 1 mps 759 mmHg 30%
15:00 +8°C° 0 mm 1 mps 758 mmHg 30%
16:00 +8°C° 0 mm 1 mps 757 mmHg 29%
17:00 +7°C° 0 mm 1 mps 757 mmHg 33%
18:00 +6°C° 0 mm 1 mps 757 mmHg 37%
19:00 +5°C° 0 mm 1 mps 757 mmHg 41%
20:00 +4°C° 0 mm 1 mps 757 mmHg 43%
21:00 +4°C° 0 mm 1 mps 757 mmHg 44%
22:00 +4°C° 0 mm 1 mps 756 mmHg 46%
23:00 +3°C° 0 mm 1 mps 756 mmHg 48%

8 March, Monday

Time Temperature Precipitation Wind Pressure Humidity
00:00 +3°C° 0 mm 1 mps 756 mmHg 49%
01:00 +2°C° 0 mm 1 mps 755 mmHg 51%
02:00 +2°C° 0 mm 1 mps 755 mmHg 53%
03:00 +2°C° 0 mm 1 mps 754 mmHg 56%
04:00 +1°C° 0 mm 1 mps 754 mmHg 58%
05:00 +2°C° 0 mm 1 mps 754 mmHg 59%
06:00 +2°C° 0 mm 1 mps 754 mmHg 59%
07:00 +2°C° 0 mm 1 mps 754 mmHg 60%
08:00 +4°C° 0 mm 1 mps 754 mmHg 53%
09:00 +5°C° 0 mm 1 mps 753 mmHg 46%
10:00 +7°C° 0 mm 1 mps 753 mmHg 38%
11:00 +8°C° 0 mm 1 mps 753 mmHg 35%
12:00 +9°C° 0 mm 1 mps 752 mmHg 32%
13:00 +10°C° 0 mm 1 mps 752 mmHg 29%
14:00 +11°C° 0 mm 1 mps 752 mmHg 29%
15:00 +11°C° 0 mm 1 mps 751 mmHg 28%
16:00 +11°C° 0 mm 1 mps 751 mmHg 28%
17:00 +10°C° 0 mm 1 mps 751 mmHg 31%
18:00 +8°C° 0 mm 1 mps 751 mmHg 35%
19:00 +7°C° 0 mm 1 mps 751 mmHg 39%
20:00 +7°C° 0 mm 1 mps 751 mmHg 41%
21:00 +6°C° 0 mm 1 mps 752 mmHg 42%
22:00 +6°C° 0 mm 1 mps 752 mmHg 43%
23:00 +6°C° 0 mm 1 mps 752 mmHg 45%
Show more

We Need Your Consent

Meteoprog and our Service Providers may store and access personal data such as cookies, device identifiers or other similar technologies on your device and process such data to personalise content and ads, as well as provide social media features and to analyse the traffic.

  • Store and/or access information on your device

    Cookies, device identifiers or other information can be stored or accessed on your device for the purposes indicated above.

  • Personalised ads and content, ad and content measurement, audience insights, and products development

    Ads and content can be personalised based on a profile. More data can be added to better personalise ads and content. Ad and content performance can be measured. Insights about the audience who saw the ads and content can be derived. Such data can be used to develop or improve user’s experience, systems and software.

By clicking ‘I Agree’ you will allow the use of indicated cookies, device identifiers, web beacons or other similar technologies. Your settings can be changed in the browser on your device.

For certain purposes, legitimate interests may be relied on, rather than consent. You can read more about this in our Privacy and Cookie Policy.